START_TIME,STEP,MOV.,P11,t_acc.,P23,t_acc.,P27,t_acc.,A4,t_acc.
1980-11-13 21:00:11.660 ,7,0,3.,4.8,0.,4.8,0.,4.8,0.,4.8
1980-11-13 21:00:16.460 ,7,0,4.,4.8,0.,4.8,0.,4.8,0.,4.8
1980-11-13 21:00:21.260 ,7,0,2.,4.8,0.,4.8,0.,4.8,0.,4.8
1980-11-13 21:00:26.060 ,7,0,3.,4.8,0.,4.8,0.,4.8,0.,4.8
1980-11-13 21:00:30.860 ,7,0,4.,4.8,0.,4.8,0.,4.8,0.,4.8
1980-11-13 21:00:35.660 ,7,0,5.,4.8,0.,4.8,0.,4.8,0.,4.8
1980-11-13 21:00:40.460 ,7,0,1.,4.8,0.,4.8,0.,4.8,0.,4.8
1980-11-13 21:00:45.260 ,7,0,3.,4.8,0.,4.8,0.,4.8,0.,4.8
1980-11-13 21:00:50.060 ,7,0,2.,4.8,0.,4.8,0.,4.8,0.,4.8
1980-11-13 21:00:54.860 ,7,0,1.,4.8,0.,4.8,0.,4.8,0.,4.8
1980-11-13 21:00:59.660 ,7,0,4.,4.8,0.,4.8,0.,4.8,0.,4.8
1980-11-13 21:01:04.460 ,7,0,3.,4.8,0.,4.8,0.,4.8,0.,4.8
1980-11-13 21:01:09.260 ,7,0,2.,4.8,0.,4.8,0.,4.8,0.,4.8
1980-11-13 21:01:14.060 ,7,0,3.,4.8,0.,4.8,0.,4.8,0.,4.8
1980-11-13 21:01:18.860 ,7,0,2.,4.8,0.,4.8,0.,4.8,0.,4.8
1980-11-13 21:01:23.660 ,6,0,1.,4.8,0.,4.8,0.,4.8,0.,4.8
1980-11-13 21:01:28.460 ,6,0,1.,4.8,0.,4.8,0.,4.8,0.,4.8
1980-11-13 21:01:33.260 ,6,0,2.,4.8,0.,4.8,0.,4.8,0.,4.8
1980-11-13 21:01:38.060 ,6,0,5.,4.8,0.,4.8,0.,4.8,0.,4.8
1980-11-13 21:01:42.860 ,6,0,0.,4.8,0.,4.8,0.,4.8,0.,4.8
1980-11-13 21:01:47.660 ,6,0,1.,4.8,0.,4.8,0.,4.8,0.,4.8
1980-11-13 21:01:52.460 ,6,0,2.,4.8,0.,4.8,0.,4.8,0.,4.8
1980-11-13 21:01:57.260 ,6,0,5.,4.8,0.,4.8,0.,4.8,0.,4.8
1980-11-13 21:02:02.060 ,6,0,3.,4.8,0.,4.8,0.,4.8,0.,4.8
1980-11-13 21:02:06.860 ,6,0,4.,4.8,0.,4.8,0.,4.8,0.,4.8
1980-11-13 21:02:11.660 ,5,0,3.,4.8,0.,4.8,0.,4.8,0.,4.8
1980-11-13 21:02:16.460 ,5,0,3.,4.8,0.,4.8,0.,4.8,0.,4.8
1980-11-13 21:02:21.260 ,5,0,2.,4.8,0.,4.8,0.,4.8,0.,4.8
1980-11-13 21:02:26.060 ,5,0,1.,4.8,0.,4.8,0.,4.8,0.,4.8
1980-11-13 21:02:30.860 ,5,0,2.,4.8,0.,4.8,0.,4.8,0.,4.8
1980-11-13 21:02:35.660 ,5,0,2.,4.8,0.,4.8,0.,4.8,0.,4.8
1980-11-13 21:02:40.460 ,5,0,2.,4.8,0.,4.8,0.,4.8,0.,4.8
1980-11-13 21:02:45.260 ,5,0,5.,4.8,0.,4.8,0.,4.8,0.,4.8
1980-11-13 21:02:50.060 ,5,0,2.,4.8,0.,4.8,0.,4.8,0.,4.8
1980-11-13 21:02:54.860 ,5,0,3.,4.8,0.,4.8,0.,4.8,0.,4.8
1980-11-13 21:02:59.660 ,4,0,1.,4.8,0.,4.8,0.,4.8,0.,4.8
1980-11-13 21:03:04.460 ,4,0,0.,4.8,0.,4.8,0.,4.8,0.,4.8
1980-11-13 21:03:09.260 ,4,0,4.,4.8,0.,4.8,0.,4.8,0.,4.8
1980-11-13 21:03:14.060 ,4,0,5.,4.8,0.,4.8,0.,4.8,0.,4.8
1980-11-13 21:03:18.860 ,4,0,3.,4.8,0.,4.8,0.,4.8,0.,4.8
1980-11-13 21:03:23.660 ,4,0,0.,4.8,0.,4.8,0.,4.8,0.,4.8
1980-11-13 21:03:28.460 ,4,0,1.,4.8,0.,4.8,0.,4.8,0.,4.8
1980-11-13 21:03:33.260 ,4,0,4.,4.8,0.,4.8,0.,4.8,0.,4.8
1980-11-13 21:03:38.060 ,4,0,2.,4.8,0.,4.8,0.,4.8,0.,4.8
1980-11-13 21:03:42.860 ,4,0,1.,4.8,0.,4.8,0.,4.8,0.,4.8
1980-11-13 21:03:47.660 ,3,0,3.,4.8,0.,4.8,0.,4.8,0.,4.8
1980-11-13 21:03:52.460 ,3,0,5.,4.8,0.,4.8,0.,4.8,0.,4.8
1980-11-13 21:03:57.260 ,3,0,2.,4.8,0.,4.8,0.,4.8,0.,4.8
1980-11-13 21:04:02.060 ,3,0,2.,4.8,0.,4.8,0.,4.8,0.,4.8
1980-11-13 21:04:06.860 ,3,0,5.,4.8,0.,4.8,0.,4.8,0.,4.8
1980-11-13 21:04:11.660 ,3,0,2.,4.8,0.,4.8,0.,4.8,0.,4.8
1980-11-13 21:04:16.460 ,3,0,2.,4.8,0.,4.8,0.,4.8,0.,4.8
1980-11-13 21:04:21.260 ,3,0,2.,4.8,0.,4.8,0.,4.8,0.,4.8
1980-11-13 21:04:26.060 ,3,0,1.,4.8,0.,4.8,0.,4.8,0.,4.8
1980-11-13 21:04:30.860 ,3,0,1.,4.8,0.,4.8,0.,4.8,0.,4.8
1980-11-13 21:04:35.660 ,2,0,7.,4.8,0.,4.8,0.,4.8,0.,4.8
1980-11-13 21:04:40.460 ,2,0,2.,4.8,0.,4.8,0.,4.8,0.,4.8
1980-11-13 21:04:45.260 ,2,0,2.,4.8,0.,4.8,0.,4.8,0.,4.8
1980-11-13 21:04:50.060 ,2,0,1.,4.8,0.,4.8,0.,4.8,0.,4.8
1980-11-13 21:04:54.860 ,2,0,1.,4.8,0.,4.8,0.,4.8,0.,4.8
1980-11-13 21:04:59.660 ,2,0,4.,4.8,0.,4.8,0.,4.8,0.,4.8
1980-11-13 21:05:04.460 ,2,0,4.,4.8,0.,4.8,0.,4.8,0.,4.8
1980-11-13 21:05:09.260 ,2,0,3.,4.8,0.,4.8,0.,4.8,0.,4.8
1980-11-13 21:05:14.060 ,2,0,3.,4.8,0.,4.8,0.,4.8,0.,4.8
1980-11-13 21:05:18.860 ,2,0,3.,4.8,0.,4.8,0.,4.8,0.,4.8
1980-11-13 21:05:23.660 ,1,0,4.,4.8,0.,4.8,0.,4.8,0.,4.8
1980-11-13 21:05:28.460 ,1,0,,0,,0,,0,,0
1980-11-13 21:05:33.260 ,1,0,,0,,0,,0,,0
1980-11-13 21:05:38.060 ,1,0,1.,4.8,0.,4.8,0.,4.8,0.,4.8
1980-11-13 21:05:42.860 ,1,0,2.,4.8,0.,4.8,0.,4.8,0.,4.8
1980-11-13 21:05:47.660 ,0,0,4.,4.8,0.,4.8,0.,4.8,0.,4.8
1980-11-13 21:05:52.460 ,0,0,2.,4.8,0.,4.8,0.,4.8,0.,4.8
1980-11-13 21:05:57.260 ,0,0,5.,4.8,0.,4.8,0.,4.8,0.,4.8
1980-11-13 21:06:02.060 ,0,0,3.,4.8,0.,4.8,0.,4.8,0.,4.8
1980-11-13 21:06:06.860 ,0,0,0.,4.8,0.,4.8,0.,4.8,0.,4.8
1980-11-13 21:07:15.260 ,0,0,,0,,0,,0,,0
1980-11-13 21:07:20.060 ,0,0,,0,,0,,0,,0
1980-11-13 21:07:24.860 ,0,0,,0,,0,,0,,0
1980-11-13 21:07:29.660 ,0,0,,0,,0,,0,,0
1980-11-13 21:07:34.460 ,0,0,5.,4.8,0.,4.8,0.,4.8,0.,4.8
1980-11-13 21:07:23.660 ,0,0,0.,4.8,0.,4.8,0.,4.8,0.,4.8
1980-11-13 21:07:28.460 ,0,0,6.,4.8,0.,4.8,0.,4.8,0.,4.8
1980-11-13 21:07:33.260 ,0,0,4.,4.8,0.,4.8,0.,4.8,0.,4.8
1980-11-13 21:07:38.060 ,0,0,1.,4.8,0.,4.8,0.,4.8,0.,4.8
1980-11-13 21:07:42.860 ,0,0,1.,4.8,0.,4.8,0.,4.8,0.,4.8
1980-11-13 21:07:47.660 ,1,0,2.,4.8,0.,4.8,0.,4.8,0.,4.8
1980-11-13 21:07:52.460 ,1,0,2.,4.8,0.,4.8,0.,4.8,0.,4.8
1980-11-13 21:07:57.260 ,1,0,4.,4.8,0.,4.8,0.,4.8,0.,4.8
1980-11-13 21:08:02.060 ,1,0,7.,4.8,0.,4.8,0.,4.8,0.,4.8
1980-11-13 21:08:06.860 ,1,0,1.,4.8,0.,4.8,0.,4.8,0.,4.8
1980-11-13 21:08:11.660 ,1,0,4.,4.8,0.,4.8,0.,4.8,0.,4.8
1980-11-13 21:08:16.460 ,1,0,5.,4.8,0.,4.8,0.,4.8,0.,4.8
1980-11-13 21:08:21.260 ,1,0,4.,4.8,0.,4.8,0.,4.8,0.,4.8
1980-11-13 21:08:26.060 ,1,0,1.,4.8,0.,4.8,0.,4.8,0.,4.8
1980-11-13 21:08:30.860 ,1,0,4.,4.8,0.,4.8,0.,4.8,0.,4.8
1980-11-13 21:08:35.660 ,2,0,3.,4.8,0.,4.8,0.,4.8,0.,4.8
1980-11-13 21:08:40.460 ,2,0,1.,4.8,0.,4.8,0.,4.8,0.,4.8
1980-11-13 21:08:45.260 ,2,0,4.,4.8,0.,4.8,0.,4.8,0.,4.8
1980-11-13 21:08:50.060 ,2,0,6.,4.8,0.,4.8,0.,4.8,0.,4.8
1980-11-13 21:08:54.860 ,2,0,1.,4.8,0.,4.8,0.,4.8,0.,4.8
1980-11-13 21:08:59.660 ,2,0,3.,4.8,0.,4.8,0.,4.8,0.,4.8
1980-11-13 21:09:04.460 ,2,0,1.,4.8,0.,4.8,0.,4.8,0.,4.8
1980-11-13 21:09:09.260 ,2,0,2.,4.8,0.,4.8,0.,4.8,0.,4.8
1980-11-13 21:09:14.060 ,2,0,3.,4.8,0.,4.8,0.,4.8,0.,4.8
1980-11-13 21:09:18.860 ,2,0,2.,4.8,0.,4.8,0.,4.8,0.,4.8
1980-11-13 21:09:23.660 ,3,0,2.,4.8,0.,4.8,0.,4.8,0.,4.8
1980-11-13 21:09:28.460 ,3,0,2.,4.8,0.,4.8,0.,4.8,0.,4.8
1980-11-13 21:09:33.260 ,3,0,4.,4.8,0.,4.8,0.,4.8,0.,4.8
1980-11-13 21:09:38.060 ,3,0,3.,4.8,0.,4.8,0.,4.8,0.,4.8
1980-11-13 21:09:42.860 ,3,0,3.,4.8,0.,4.8,0.,4.8,0.,4.8
1980-11-13 21:09:47.660 ,3,0,3.,4.8,0.,4.8,0.,4.8,0.,4.8
1980-11-13 21:09:52.460 ,3,0,1.,4.8,0.,4.8,0.,4.8,0.,4.8
1980-11-13 21:09:57.260 ,3,0,1.,4.8,0.,4.8,0.,4.8,0.,4.8
1980-11-13 21:10:02.060 ,3,0,6.,4.8,0.,4.8,0.,4.8,0.,4.8
1980-11-13 21:10:06.860 ,3,0,6.,4.8,0.,4.8,0.,4.8,0.,4.8
1980-11-13 21:10:11.660 ,4,0,5.,4.8,0.,4.8,0.,4.8,0.,4.8
1980-11-13 21:10:16.460 ,4,0,3.,4.8,0.,4.8,0.,4.8,0.,4.8
1980-11-13 21:10:21.260 ,4,0,1.,4.8,0.,4.8,0.,4.8,0.,4.8
1980-11-13 21:10:26.060 ,4,0,1.,4.8,0.,4.8,0.,4.8,0.,4.8
1980-11-13 21:10:30.860 ,4,0,2.,4.8,0.,4.8,0.,4.8,0.,4.8
1980-11-13 21:10:35.660 ,4,0,2.,4.8,0.,4.8,0.,4.8,0.,4.8
1980-11-13 21:10:40.460 ,4,0,2.,4.8,0.,4.8,0.,4.8,0.,4.8
1980-11-13 21:10:45.260 ,4,0,5.,4.8,0.,4.8,0.,4.8,0.,4.8
1980-11-13 21:10:50.060 ,4,0,2.,4.8,0.,4.8,0.,4.8,0.,4.8
1980-11-13 21:10:54.860 ,4,0,1.,4.8,0.,4.8,0.,4.8,0.,4.8
1980-11-13 21:10:59.660 ,5,0,2.,4.8,0.,4.8,0.,4.8,0.,4.8
1980-11-13 21:11:04.460 ,5,0,4.,4.8,0.,4.8,0.,4.8,0.,4.8
1980-11-13 21:11:09.260 ,5,0,2.,4.8,0.,4.8,0.,4.8,0.,4.8
1980-11-13 21:11:14.060 ,5,0,2.,4.8,0.,4.8,0.,4.8,0.,4.8
1980-11-13 21:11:18.860 ,5,0,2.,4.8,0.,4.8,0.,4.8,0.,4.8
1980-11-13 21:11:23.660 ,5,0,4.,4.8,0.,4.8,0.,4.8,0.,4.8
1980-11-13 21:11:28.460 ,5,0,5.,4.8,0.,4.8,0.,4.8,0.,4.8
1980-11-13 21:11:33.260 ,5,0,1.,4.8,0.,4.8,0.,4.8,0.,4.8
1980-11-13 21:11:38.060 ,5,0,2.,4.8,0.,4.8,0.,4.8,0.,4.8
1980-11-13 21:11:42.860 ,5,0,2.,4.8,0.,4.8,0.,4.8,0.,4.8
1980-11-13 21:11:47.660 ,6,0,2.,4.8,0.,4.8,0.,4.8,0.,4.8
1980-11-13 21:11:52.460 ,6,0,3.,4.8,0.,4.8,0.,4.8,0.,4.8
1980-11-13 21:11:57.260 ,6,0,2.,4.8,0.,4.8,0.,4.8,0.,4.8
1980-11-13 21:12:02.060 ,6,0,5.,4.8,0.,4.8,0.,4.8,0.,4.8
1980-11-13 21:12:06.860 ,6,0,2.,4.8,0.,4.8,0.,4.8,0.,4.8
1980-11-13 21:12:11.660 ,6,0,2.,4.8,0.,4.8,0.,4.8,0.,4.8
1980-11-13 21:12:16.460 ,6,0,1.,4.8,0.,4.8,0.,4.8,0.,4.8
1980-11-13 21:12:21.260 ,6,0,2.,4.8,0.,4.8,0.,4.8,0.,4.8
1980-11-13 21:12:26.060 ,6,0,1.,4.8,0.,4.8,0.,4.8,0.,4.8
1980-11-13 21:12:30.860 ,6,0,3.,4.8,0.,4.8,0.,4.8,0.,4.8
1980-11-13 21:12:35.660 ,7,0,1.,4.8,0.,4.8,0.,4.8,0.,4.8
1980-11-13 21:12:40.460 ,7,0,4.,4.8,0.,4.8,0.,4.8,0.,4.8
1980-11-13 21:12:45.260 ,7,0,2.,4.8,0.,4.8,0.,4.8,0.,4.8
1980-11-13 21:12:50.060 ,7,0,5.,4.8,0.,4.8,0.,4.8,0.,4.8
1980-11-13 21:12:54.860 ,7,0,3.,4.8,0.,4.8,0.,4.8,0.,4.8
1980-11-13 21:12:59.660 ,7,0,3.,4.8,0.,4.8,0.,4.8,0.,4.8
1980-11-13 21:13:04.460 ,7,0,0.,4.8,0.,4.8,0.,4.8,0.,4.8
1980-11-13 21:13:09.260 ,7,0,1.,4.8,0.,4.8,0.,4.8,0.,4.8
1980-11-13 21:13:14.060 ,7,0,4.,4.8,0.,4.8,0.,4.8,0.,4.8
1980-11-13 21:13:18.860 ,7,0,3.,4.8,0.,4.8,0.,4.8,0.,4.8
1980-11-13 21:13:23.660 ,7,0,1.,4.8,0.,4.8,0.,4.8,0.,4.8
1980-11-13 21:13:28.460 ,7,0,4.,4.8,0.,4.8,0.,4.8,0.,4.8
1980-11-13 21:13:33.260 ,7,0,6.,4.8,0.,4.8,0.,4.8,0.,4.8
1980-11-13 21:13:38.060 ,7,0,1.,4.8,0.,4.8,0.,4.8,0.,4.8
1980-11-13 21:13:42.860 ,7,0,1.,4.8,0.,4.8,0.,4.8,0.,4.8
1980-11-13 21:13:47.660 ,0,0,4.,4.8,0.,4.8,0.,4.8,0.,4.8
1980-11-13 21:13:52.460 ,0,0,4.,4.8,0.,4.8,0.,4.8,0.,4.8
1980-11-13 21:13:57.260 ,0,0,2.,4.8,0.,4.8,0.,4.8,0.,4.8
1980-11-13 21:14:02.060 ,0,0,0.,4.8,0.,4.8,0.,4.8,0.,4.8
1980-11-13 21:14:06.860 ,0,0,1.,4.8,0.,4.8,0.,4.8,0.,4.8
1980-11-13 21:14:33.860 ,0,0,,0,,0,,0,,0
1980-11-13 21:14:38.660 ,0,0,,0,,0,,0,,0
1980-11-13 21:14:43.460 ,0,0,,0,,0,,0,,0
1980-11-13 21:14:48.260 ,0,0,,0,,0,,0,,0
1980-11-13 21:14:53.060 ,0,0,,0,,0,,0,,0
1980-11-13 21:14:35.660 ,0,0,0.,4.8,0.,4.8,0.,4.8,0.,4.8
1980-11-13 21:14:40.460 ,0,0,2.,4.8,0.,4.8,0.,4.8,0.,4.8
1980-11-13 21:14:45.260 ,0,0,4.,4.8,0.,4.8,0.,4.8,0.,4.8
1980-11-13 21:14:50.060 ,0,0,3.,4.8,0.,4.8,0.,4.8,0.,4.8
1980-11-13 21:14:54.860 ,0,0,5.,4.8,0.,4.8,0.,4.8,0.,4.8
1980-11-13 21:14:59.660 ,5,0,0.,4.8,0.,4.8,0.,4.8,0.,4.8
1980-11-13 21:15:04.460 ,5,0,5.,4.8,0.,4.8,0.,4.8,0.,4.8
1980-11-13 21:15:09.260 ,5,0,2.,4.8,0.,4.8,0.,4.8,0.,4.8
1980-11-13 21:15:14.060 ,5,0,4.,4.8,0.,4.8,0.,4.8,0.,4.8
1980-11-13 21:15:18.860 ,5,0,7.,4.8,0.,4.8,0.,4.8,0.,4.8
1980-11-13 21:15:23.660 ,5,0,3.,4.8,0.,4.8,0.,4.8,0.,4.8
1980-11-13 21:15:28.460 ,5,0,4.,4.8,0.,4.8,0.,4.8,0.,4.8
1980-11-13 21:15:33.260 ,5,0,3.,4.8,0.,4.8,0.,4.8,0.,4.8
1980-11-13 21:15:38.060 ,5,0,2.,4.8,0.,4.8,0.,4.8,0.,4.8
1980-11-13 21:15:42.860 ,5,0,3.,4.8,0.,4.8,0.,4.8,0.,4.8
1980-11-13 21:15:47.660 ,0,0,4.,4.8,0.,4.8,0.,4.8,0.,4.8
1980-11-13 21:15:52.460 ,0,0,0.,4.8,0.,4.8,0.,4.8,0.,4.8
1980-11-13 21:15:57.260 ,0,0,4.,4.8,0.,4.8,0.,4.8,0.,4.8
1980-11-13 21:16:02.060 ,0,0,2.,4.8,0.,4.8,0.,4.8,0.,4.8
1980-11-13 21:16:06.860 ,0,0,3.,4.8,0.,4.8,0.,4.8,0.,4.8
1980-11-13 21:16:11.660 ,2,0,2.,4.8,0.,4.8,0.,4.8,0.,4.8
1980-11-13 21:16:16.460 ,2,0,1.,4.8,0.,4.8,0.,4.8,0.,4.8
1980-11-13 21:16:21.260 ,2,0,3.,4.8,0.,4.8,0.,4.8,0.,4.8
1980-11-13 21:16:26.060 ,2,0,1.,4.8,0.,4.8,0.,4.8,0.,4.8
1980-11-13 21:16:30.860 ,2,0,2.,4.8,0.,4.8,0.,4.8,0.,4.8
1980-11-13 21:16:35.660 ,2,0,1.,4.8,0.,4.8,0.,4.8,0.,4.8
1980-11-13 21:16:40.460 ,2,0,0.,4.8,0.,4.8,0.,4.8,0.,4.8
1980-11-13 21:16:45.260 ,2,0,5.,4.8,0.,4.8,0.,4.8,0.,4.8
1980-11-13 21:16:50.060 ,2,0,4.,4.8,0.,4.8,0.,4.8,0.,4.8
1980-11-13 21:16:54.860 ,2,0,3.,4.8,0.,4.8,0.,4.8,0.,4.8
1980-11-13 21:16:59.660 ,2,0,1.,4.8,0.,4.8,0.,4.8,0.,4.8
1980-11-13 21:17:04.460 ,2,0,2.,4.8,0.,4.8,0.,4.8,0.,4.8
1980-11-13 21:17:09.260 ,2,0,2.,4.8,0.,4.8,0.,4.8,0.,4.8
1980-11-13 21:17:14.060 ,2,0,0.,4.8,0.,4.8,0.,4.8,0.,4.8
1980-11-13 21:17:18.860 ,2,0,4.,4.8,0.,4.8,0.,4.8,0.,4.8
1980-11-13 21:17:23.660 ,2,0,4.,4.8,0.,4.8,0.,4.8,0.,4.8
1980-11-13 21:17:28.460 ,2,0,2.,4.8,0.,4.8,0.,4.8,0.,4.8
1980-11-13 21:17:33.260 ,2,0,4.,4.8,0.,4.8,0.,4.8,0.,4.8
1980-11-13 21:17:38.060 ,2,0,1.,4.8,0.,4.8,0.,4.8,0.,4.8
1980-11-13 21:17:42.860 ,2,0,6.,4.8,0.,4.8,0.,4.8,0.,4.8
1980-11-13 21:17:47.660 ,2,0,2.,4.8,0.,4.8,0.,4.8,0.,4.8
1980-11-13 21:17:52.460 ,2,0,0.,4.8,0.,4.8,0.,4.8,0.,4.8
1980-11-13 21:17:57.260 ,2,0,3.,4.8,0.,4.8,0.,4.8,0.,4.8
1980-11-13 21:18:02.060 ,2,0,6.,4.8,0.,4.8,0.,4.8,0.,4.8
1980-11-13 21:18:06.860 ,2,0,3.,4.8,0.,4.8,0.,4.8,0.,4.8
1980-11-13 21:18:11.660 ,2,0,3.,4.8,0.,4.8,0.,4.8,0.,4.8
1980-11-13 21:18:16.460 ,2,0,6.,4.8,0.,4.8,0.,4.8,0.,4.8
1980-11-13 21:18:21.260 ,2,0,1.,4.8,0.,4.8,0.,4.8,0.,4.8
1980-11-13 21:18:26.060 ,2,0,4.,4.8,0.,4.8,0.,4.8,0.,4.8
1980-11-13 21:18:30.860 ,2,0,4.,4.8,0.,4.8,0.,4.8,0.,4.8
1980-11-13 21:18:35.660 ,2,0,1.,4.8,0.,4.8,0.,4.8,0.,4.8
1980-11-13 21:18:40.460 ,2,0,2.,4.8,0.,4.8,0.,4.8,0.,4.8
1980-11-13 21:18:45.260 ,2,0,4.,4.8,0.,4.8,0.,4.8,0.,4.8
1980-11-13 21:18:50.060 ,2,0,4.,4.8,0.,4.8,0.,4.8,0.,4.8
1980-11-13 21:18:54.860 ,2,0,2.,4.8,0.,4.8,0.,4.8,0.,4.8
1980-11-13 21:18:59.660 ,2,0,4.,4.8,0.,4.8,0.,4.8,0.,4.8
1980-11-13 21:19:04.460 ,2,0,1.,4.8,0.,4.8,0.,4.8,0.,4.8
1980-11-13 21:19:09.260 ,2,0,2.,4.8,0.,4.8,0.,4.8,0.,4.8
1980-11-13 21:19:14.060 ,2,0,1.,4.8,0.,4.8,0.,4.8,0.,4.8
1980-11-13 21:19:18.860 ,2,0,3.,4.8,0.,4.8,0.,4.8,0.,4.8
1980-11-13 21:19:23.660 ,2,0,1.,4.8,0.,4.8,0.,4.8,0.,4.8
1980-11-13 21:19:28.460 ,2,0,2.,4.8,0.,4.8,0.,4.8,0.,4.8
1980-11-13 21:19:33.260 ,2,0,1.,4.8,0.,4.8,0.,4.8,0.,4.8
1980-11-13 21:19:38.060 ,2,0,2.,4.8,0.,4.8,0.,4.8,0.,4.8
1980-11-13 21:19:42.860 ,2,0,6.,4.8,0.,4.8,0.,4.8,0.,4.8
1980-11-13 21:19:47.660 ,2,0,5.,4.8,0.,4.8,0.,4.8,0.,4.8
1980-11-13 21:19:52.460 ,2,0,2.,4.8,0.,4.8,0.,4.8,0.,4.8
1980-11-13 21:19:57.260 ,2,0,6.,4.8,0.,4.8,0.,4.8,0.,4.8
1980-11-13 21:20:02.060 ,2,0,3.,4.8,0.,4.8,0.,4.8,0.,4.8
1980-11-13 21:20:06.860 ,2,0,0.,4.8,0.,4.8,0.,4.8,0.,4.8
1980-11-13 21:20:11.660 ,2,0,1.,4.8,0.,4.8,0.,4.8,0.,4.8
1980-11-13 21:20:16.460 ,2,0,2.,4.8,0.,4.8,0.,4.8,0.,4.8
1980-11-13 21:20:21.260 ,2,0,4.,4.8,0.,4.8,0.,4.8,0.,4.8
1980-11-13 21:20:26.060 ,2,0,2.,4.8,0.,4.8,0.,4.8,0.,4.8
1980-11-13 21:20:30.860 ,2,0,4.,4.8,0.,4.8,0.,4.8,0.,4.8
1980-11-13 21:20:35.660 ,2,0,2.,4.8,0.,4.8,0.,4.8,0.,4.8
1980-11-13 21:20:40.460 ,2,0,5.,4.8,0.,4.8,0.,4.8,0.,4.8
1980-11-13 21:20:45.260 ,2,0,2.,4.8,0.,4.8,0.,4.8,0.,4.8
1980-11-13 21:20:50.060 ,2,0,2.,4.8,0.,4.8,0.,4.8,0.,4.8
1980-11-13 21:20:54.860 ,2,0,3.,4.8,0.,4.8,0.,4.8,0.,4.8
1980-11-13 21:20:59.660 ,2,0,0.,4.8,0.,4.8,0.,4.8,0.,4.8
1980-11-13 21:21:04.460 ,2,0,6.,4.8,0.,4.8,0.,4.8,0.,4.8
1980-11-13 21:21:09.260 ,2,0,1.,4.8,0.,4.8,0.,4.8,0.,4.8
1980-11-13 21:21:14.060 ,2,0,4.,4.8,0.,4.8,0.,4.8,0.,4.8
1980-11-13 21:21:18.860 ,2,0,1.,4.8,0.,4.8,0.,4.8,0.,4.8
1980-11-13 21:21:23.660 ,2,0,6.,4.8,0.,4.8,0.,4.8,0.,4.8
1980-11-13 21:21:28.460 ,2,0,2.,4.8,0.,4.8,0.,4.8,0.,4.8
1980-11-13 21:21:33.260 ,2,0,4.,4.8,0.,4.8,0.,4.8,0.,4.8
1980-11-13 21:21:38.060 ,2,0,1.,4.8,0.,4.8,0.,4.8,0.,4.8
1980-11-13 21:21:42.860 ,2,0,1.,4.8,0.,4.8,0.,4.8,0.,4.8
1980-11-13 21:21:47.660 ,2,0,4.,4.8,0.,4.8,0.,4.8,0.,4.8
1980-11-13 21:21:52.460 ,2,0,1.,4.8,0.,4.8,0.,4.8,0.,4.8
1980-11-13 21:21:57.260 ,2,0,3.,4.8,0.,4.8,0.,4.8,0.,4.8
1980-11-13 21:22:02.060 ,2,0,1.,4.8,0.,4.8,0.,4.8,0.,4.8
1980-11-13 21:22:06.860 ,2,0,3.,4.8,0.,4.8,0.,4.8,0.,4.8
1980-11-13 21:22:11.660 ,2,0,5.,4.8,0.,4.8,0.,4.8,0.,4.8
1980-11-13 21:22:16.460 ,2,0,2.,4.8,0.,4.8,0.,4.8,0.,4.8
1980-11-13 21:22:21.260 ,2,0,5.,4.8,0.,4.8,0.,4.8,0.,4.8
1980-11-13 21:22:26.060 ,2,0,3.,4.8,0.,4.8,0.,4.8,0.,4.8
1980-11-13 21:22:30.860 ,2,0,0.,4.8,0.,4.8,0.,4.8,0.,4.8
1980-11-13 21:22:35.660 ,2,0,1.,4.8,0.,4.8,0.,4.8,0.,4.8
1980-11-13 21:22:40.460 ,2,0,2.,4.8,0.,4.8,0.,4.8,0.,4.8
1980-11-13 21:22:45.260 ,2,0,2.,4.8,0.,4.8,0.,4.8,0.,4.8
1980-11-13 21:22:50.060 ,2,0,8.,4.8,0.,4.8,0.,4.8,0.,4.8
1980-11-13 21:22:54.860 ,2,0,3.,4.8,0.,4.8,0.,4.8,0.,4.8
1980-11-13 21:22:59.660 ,2,0,3.,4.8,0.,4.8,0.,4.8,0.,4.8
1980-11-13 21:23:04.460 ,2,0,4.,4.8,0.,4.8,0.,4.8,0.,4.8
1980-11-13 21:23:09.260 ,2,0,1.,4.8,0.,4.8,0.,4.8,0.,4.8
1980-11-13 21:23:14.060 ,2,0,4.,4.8,0.,4.8,0.,4.8,0.,4.8
1980-11-13 21:23:18.860 ,2,0,0.,4.8,0.,4.8,0.,4.8,0.,4.8
1980-11-13 21:23:23.660 ,2,0,0.,4.8,0.,4.8,0.,4.8,0.,4.8
1980-11-13 21:23:28.460 ,2,0,3.,4.8,0.,4.8,0.,4.8,0.,4.8
1980-11-13 21:23:33.260 ,2,0,1.,4.8,0.,4.8,0.,4.8,0.,4.8
1980-11-13 21:23:38.060 ,2,0,2.,4.8,0.,4.8,0.,4.8,0.,4.8
1980-11-13 21:23:42.860 ,2,0,1.,4.8,0.,4.8,0.,4.8,0.,4.8
1980-11-13 21:23:47.660 ,2,0,5.,4.8,0.,4.8,0.,4.8,0.,4.8
1980-11-13 21:23:52.460 ,2,0,4.,4.8,0.,4.8,0.,4.8,0.,4.8
1980-11-13 21:23:57.260 ,2,0,2.,4.8,0.,4.8,0.,4.8,0.,4.8
1980-11-13 21:24:02.060 ,2,0,3.,4.8,0.,4.8,0.,4.8,0.,4.8
1980-11-13 21:24:06.860 ,2,0,1.,4.8,0.,4.8,0.,4.8,0.,4.8
1980-11-13 21:24:11.660 ,2,0,5.,4.8,0.,4.8,0.,4.8,0.,4.8
1980-11-13 21:24:16.460 ,2,0,2.,4.8,0.,4.8,0.,4.8,0.,4.8
1980-11-13 21:24:21.260 ,2,0,2.,4.8,0.,4.8,0.,4.8,0.,4.8
1980-11-13 21:24:26.060 ,2,0,0.,4.8,0.,4.8,0.,4.8,0.,4.8
1980-11-13 21:24:30.860 ,2,0,4.,4.8,0.,4.8,0.,4.8,0.,4.8
1980-11-13 21:24:35.660 ,2,0,5.,4.8,0.,4.8,0.,4.8,0.,4.8
1980-11-13 21:24:40.460 ,2,0,1.,4.8,0.,4.8,0.,4.8,0.,4.8
1980-11-13 21:24:45.260 ,2,0,2.,4.8,0.,4.8,0.,4.8,0.,4.8
1980-11-13 21:24:50.060 ,2,0,4.,4.8,0.,4.8,0.,4.8,0.,4.8
1980-11-13 21:24:54.860 ,2,0,3.,4.8,0.,4.8,0.,4.8,0.,4.8
1980-11-13 21:24:59.660 ,2,0,2.,4.8,0.,4.8,0.,4.8,0.,4.8
1980-11-13 21:25:04.460 ,2,0,4.,4.8,0.,4.8,0.,4.8,0.,4.8
1980-11-13 21:25:09.260 ,2,0,1.,4.8,0.,4.8,0.,4.8,0.,4.8
1980-11-13 21:25:14.060 ,2,0,3.,4.8,0.,4.8,0.,4.8,0.,4.8
1980-11-13 21:25:18.860 ,2,0,2.,4.8,0.,4.8,0.,4.8,0.,4.8
1980-11-13 21:25:23.660 ,2,0,3.,4.8,0.,4.8,0.,4.8,0.,4.8
1980-11-13 21:25:28.460 ,2,0,2.,4.8,0.,4.8,0.,4.8,1.,4.8
1980-11-13 21:25:33.260 ,2,0,1.,4.8,0.,4.8,0.,4.8,0.,4.8
1980-11-13 21:25:38.060 ,2,0,3.,4.8,0.,4.8,0.,4.8,1.,4.8
1980-11-13 21:25:42.860 ,2,0,5.,4.8,0.,4.8,0.,4.8,0.,4.8
1980-11-13 21:25:47.660 ,2,0,2.,4.8,0.,4.8,0.,4.8,0.,4.8
1980-11-13 21:25:52.460 ,2,0,2.,4.8,0.,4.8,0.,4.8,0.,4.8
1980-11-13 21:25:57.260 ,2,0,3.,4.8,0.,4.8,0.,4.8,0.,4.8
1980-11-13 21:26:02.060 ,2,0,4.,4.8,0.,4.8,0.,4.8,0.,4.8
1980-11-13 21:26:06.860 ,2,0,3.,4.8,0.,4.8,0.,4.8,0.,4.8
1980-11-13 21:26:11.660 ,2,0,2.,4.8,0.,4.8,0.,4.8,0.,4.8
1980-11-13 21:26:16.460 ,2,0,4.,4.8,0.,4.8,0.,4.8,0.,4.8
1980-11-13 21:26:21.260 ,2,0,3.,4.8,0.,4.8,0.,4.8,0.,4.8
1980-11-13 21:26:26.060 ,2,0,,0,,0,,0,,0
1980-11-13 21:26:30.860 ,2,0,3.,4.8,0.,4.8,0.,4.8,0.,4.8
1980-11-13 21:26:35.660 ,2,0,1.,4.8,0.,4.8,0.,4.8,0.,4.8
1980-11-13 21:26:40.460 ,2,0,3.,4.8,0.,4.8,0.,4.8,0.,4.8
1980-11-13 21:26:45.260 ,2,0,1.,4.8,0.,4.8,0.,4.8,0.,4.8
1980-11-13 21:26:50.060 ,2,0,1.,4.8,0.,4.8,0.,4.8,0.,4.8
1980-11-13 21:26:54.860 ,2,0,3.,4.8,0.,4.8,0.,4.8,0.,4.8
1980-11-13 21:26:59.660 ,2,0,0.,4.8,0.,4.8,0.,4.8,0.,4.8
1980-11-13 21:27:04.460 ,2,0,4.,4.8,0.,4.8,0.,4.8,0.,4.8
1980-11-13 21:27:09.260 ,2,0,1.,4.8,0.,4.8,0.,4.8,0.,4.8
1980-11-13 21:27:14.060 ,2,0,6.,4.8,0.,4.8,0.,4.8,0.,4.8
1980-11-13 21:27:18.860 ,2,0,1.,4.8,0.,4.8,0.,4.8,0.,4.8
1980-11-13 21:27:23.660 ,2,0,0.,4.8,0.,4.8,0.,4.8,0.,4.8
1980-11-13 21:27:28.460 ,2,0,5.,4.8,0.,4.8,0.,4.8,0.,4.8
1980-11-13 21:27:33.260 ,2,0,1.,4.8,0.,4.8,0.,4.8,0.,4.8
1980-11-13 21:27:38.060 ,2,0,6.,4.8,0.,4.8,0.,4.8,0.,4.8
1980-11-13 21:27:42.860 ,2,0,1.,4.8,0.,4.8,0.,4.8,0.,4.8
1980-11-13 21:27:47.660 ,2,0,0.,4.8,0.,4.8,0.,4.8,0.,4.8
1980-11-13 21:27:52.460 ,2,0,3.,4.8,0.,4.8,0.,4.8,0.,4.8
1980-11-13 21:27:57.260 ,2,0,0.,4.8,0.,4.8,0.,4.8,0.,4.8
1980-11-13 21:28:02.060 ,2,0,3.,4.8,0.,4.8,0.,4.8,0.,4.8
1980-11-13 21:28:06.860 ,2,0,4.,4.8,0.,4.8,0.,4.8,0.,4.8
1980-11-13 21:28:11.660 ,0,0,4.,4.8,0.,4.8,0.,4.8,0.,4.8
1980-11-13 21:28:16.460 ,0,0,0.,4.8,0.,4.8,0.,4.8,0.,4.8
1980-11-13 21:28:21.260 ,0,0,3.,4.8,0.,4.8,0.,4.8,0.,4.8
1980-11-13 21:28:26.060 ,0,0,1.,4.8,0.,4.8,0.,4.8,0.,4.8
1980-11-13 21:28:30.860 ,0,0,1.,4.8,0.,4.8,0.,4.8,0.,4.8
1980-11-13 21:28:11.660 ,2,0,4.,4.8,0.,4.8,0.,4.8,0.,4.8
1980-11-13 21:28:16.460 ,2,0,0.,4.8,0.,4.8,0.,4.8,0.,4.8
1980-11-13 21:28:21.260 ,2,0,3.,4.8,0.,4.8,0.,4.8,0.,4.8
1980-11-13 21:28:26.060 ,2,0,1.,4.8,0.,4.8,0.,4.8,0.,4.8
1980-11-13 21:28:30.860 ,2,0,1.,4.8,0.,4.8,0.,4.8,0.,4.8
1980-11-13 21:28:35.660 ,2,0,2.,4.8,0.,4.8,0.,4.8,0.,4.8
1980-11-13 21:28:40.460 ,2,0,1.,4.8,0.,4.8,0.,4.8,0.,4.8
1980-11-13 21:28:45.260 ,2,0,2.,4.8,0.,4.8,0.,4.8,0.,4.8
1980-11-13 21:28:50.060 ,2,0,3.,4.8,0.,4.8,0.,4.8,0.,4.8
1980-11-13 21:28:54.860 ,2,0,0.,4.8,0.,4.8,0.,4.8,0.,4.8
1980-11-13 21:28:59.660 ,2,0,3.,4.8,0.,4.8,0.,4.8,0.,4.8
1980-11-13 21:29:04.460 ,2,0,2.,4.8,0.,4.8,0.,4.8,0.,4.8
1980-11-13 21:29:09.260 ,2,0,3.,4.8,0.,4.8,0.,4.8,0.,4.8
1980-11-13 21:29:14.060 ,2,0,1.,4.8,0.,4.8,0.,4.8,0.,4.8
1980-11-13 21:29:18.860 ,2,0,2.,4.8,0.,4.8,0.,4.8,0.,4.8
1980-11-13 21:29:23.660 ,2,0,1.,4.8,0.,4.8,0.,4.8,0.,4.8
1980-11-13 21:29:28.460 ,2,0,6.,4.8,0.,4.8,0.,4.8,0.,4.8
1980-11-13 21:29:33.260 ,2,0,2.,4.8,0.,4.8,0.,4.8,0.,4.8
1980-11-13 21:29:38.060 ,2,0,4.,4.8,0.,4.8,0.,4.8,0.,4.8
1980-11-13 21:29:42.860 ,2,0,3.,4.8,0.,4.8,0.,4.8,0.,4.8
1980-11-13 21:29:47.660 ,2,0,4.,4.8,0.,4.8,0.,4.8,0.,4.8
1980-11-13 21:29:52.460 ,2,0,0.,4.8,0.,4.8,0.,4.8,0.,4.8
1980-11-13 21:29:57.260 ,2,0,0.,4.8,0.,4.8,0.,4.8,0.,4.8
1980-11-13 21:30:02.060 ,2,0,1.,4.8,0.,4.8,0.,4.8,0.,4.8
1980-11-13 21:30:06.860 ,2,0,1.,4.8,0.,4.8,0.,4.8,0.,4.8
1980-11-13 21:30:11.660 ,2,0,3.,4.8,0.,4.8,0.,4.8,0.,4.8
1980-11-13 21:30:16.460 ,2,0,1.,4.8,0.,4.8,0.,4.8,0.,4.8
1980-11-13 21:30:21.260 ,2,0,2.,4.8,0.,4.8,0.,4.8,0.,4.8
1980-11-13 21:30:26.060 ,2,0,3.,4.8,0.,4.8,0.,4.8,0.,4.8
1980-11-13 21:30:30.860 ,2,0,6.,4.8,0.,4.8,0.,4.8,0.,4.8
1980-11-13 21:30:35.660 ,2,0,2.,4.8,0.,4.8,0.,4.8,0.,4.8
1980-11-13 21:30:40.460 ,2,0,2.,4.8,0.,4.8,0.,4.8,0.,4.8
1980-11-13 21:30:45.260 ,2,0,0.,4.8,0.,4.8,0.,4.8,0.,4.8
1980-11-13 21:30:50.060 ,2,0,2.,4.8,0.,4.8,0.,4.8,0.,4.8
1980-11-13 21:30:54.860 ,2,0,1.,4.8,0.,4.8,0.,4.8,0.,4.8
1980-11-13 21:30:59.660 ,2,0,4.,4.8,0.,4.8,0.,4.8,0.,4.8
1980-11-13 21:31:04.460 ,2,0,3.,4.8,0.,4.8,0.,4.8,0.,4.8
1980-11-13 21:31:09.260 ,2,0,0.,4.8,0.,4.8,0.,4.8,0.,4.8
1980-11-13 21:31:14.060 ,2,0,9.,4.8,0.,4.8,0.,4.8,0.,4.8
1980-11-13 21:31:18.860 ,2,0,2.,4.8,0.,4.8,0.,4.8,0.,4.8
1980-11-13 21:31:23.660 ,2,0,2.,4.8,0.,4.8,0.,4.8,0.,4.8
1980-11-13 21:31:28.460 ,2,0,2.,4.8,0.,4.8,0.,4.8,0.,4.8
1980-11-13 21:31:33.260 ,2,0,1.,4.8,0.,4.8,0.,4.8,0.,4.8
1980-11-13 21:31:38.060 ,2,0,2.,4.8,0.,4.8,0.,4.8,0.,4.8
1980-11-13 21:31:42.860 ,2,0,2.,4.8,0.,4.8,0.,4.8,0.,4.8
1980-11-13 21:31:47.660 ,2,0,3.,4.8,0.,4.8,0.,4.8,0.,4.8
1980-11-13 21:31:52.460 ,2,0,1.,4.8,0.,4.8,0.,4.8,0.,4.8
1980-11-13 21:31:57.260 ,2,0,3.,4.8,0.,4.8,0.,4.8,0.,4.8
1980-11-13 21:32:02.060 ,2,0,1.,4.8,0.,4.8,0.,4.8,0.,4.8
1980-11-13 21:32:06.860 ,2,0,2.,4.8,0.,4.8,0.,4.8,0.,4.8
1980-11-13 21:32:11.660 ,2,0,2.,4.8,0.,4.8,0.,4.8,0.,4.8
1980-11-13 21:32:16.460 ,2,0,3.,4.8,0.,4.8,0.,4.8,0.,4.8
1980-11-13 21:32:21.260 ,2,0,1.,4.8,0.,4.8,0.,4.8,0.,4.8
1980-11-13 21:32:26.060 ,2,0,1.,4.8,0.,4.8,0.,4.8,0.,4.8
1980-11-13 21:32:30.860 ,2,0,3.,4.8,0.,4.8,0.,4.8,0.,4.8
1980-11-13 21:32:35.660 ,2,0,0.,4.8,0.,4.8,0.,4.8,0.,4.8
1980-11-13 21:32:40.460 ,2,0,4.,4.8,0.,4.8,0.,4.8,0.,4.8
1980-11-13 21:32:45.260 ,2,0,2.,4.8,0.,4.8,0.,4.8,0.,4.8
1980-11-13 21:32:50.060 ,2,0,0.,4.8,0.,4.8,0.,4.8,0.,4.8
1980-11-13 21:32:54.860 ,2,0,3.,4.8,0.,4.8,0.,4.8,0.,4.8
1980-11-13 21:32:59.660 ,2,0,0.,4.8,0.,4.8,0.,4.8,0.,4.8
1980-11-13 21:33:04.460 ,2,0,6.,4.8,0.,4.8,0.,4.8,0.,4.8
1980-11-13 21:33:09.260 ,2,0,1.,4.8,0.,4.8,0.,4.8,0.,4.8
1980-11-13 21:33:14.060 ,2,0,1.,4.8,0.,4.8,0.,4.8,0.,4.8
1980-11-13 21:33:18.860 ,2,0,2.,4.8,0.,4.8,0.,4.8,0.,4.8
1980-11-13 21:33:23.660 ,2,0,2.,4.8,0.,4.8,0.,4.8,0.,4.8
1980-11-13 21:33:28.460 ,2,0,2.,4.8,0.,4.8,0.,4.8,0.,4.8
1980-11-13 21:33:33.260 ,2,0,3.,4.8,0.,4.8,0.,4.8,0.,4.8
1980-11-13 21:33:38.060 ,2,0,4.,4.8,0.,4.8,0.,4.8,0.,4.8
1980-11-13 21:33:42.860 ,2,0,5.,4.8,0.,4.8,0.,4.8,0.,4.8